Monistrol de Calders





Hora UTC 21:10
Temperatura 18.2 ºC
Humitat 79.0 %
Pressió 1025.4 hPa
Pluja 0.0 mm
Velocitat vent 0.0 km/h
Direcció vent S

Dades diàries 2022-10-05



Hora UTC (hivern +1h; estiu +2h)
Temperatura (ºC) Humitat (%) Pressió (hPa) Velocitat vent (km/h) Precipitació (mm)
Hora UTC Aire Humitat Pressió Vel. Dir. Vel. Max Dir. Intent. màx 5 min.
00:05 11.7 87.0 1022.8 0.0 SE 0.0 0.0
00:10 11.6 87.0 1022.8 0.0 SE 4.8 0.0
00:15 11.4 87.0 1022.8 0.0 SE 4.8 0.0
00:20 11.4 87.0 1022.9 0.0 SE 0.0 0.0
00:25 11.4 87.0 1022.9 0.0 SE 3.2 0.0
00:30 11.3 87.0 1022.9 1.6 SE 3.2 0.0
00:35 11.3 87.0 1022.9 3.2 SE 4.8 0.0
00:40 11.2 87.0 1023.0 0.0 SE 4.8 0.0
00:45 11.2 87.0 1023.0 0.0 SE 4.8 0.0
00:50 11.2 87.0 1023.0 0.0 SE 4.8 0.0
00:55 11.1 87.0 1023.0 0.0 SE 1.6 0.0
01:00 11.0 87.0 1023.0 0.0 SE 3.2 0.0
01:05 10.9 87.0 1023.1 0.0 SE 3.2 0.0
01:10 10.8 87.0 1023.0 0.0 SE 3.2 0.0
01:15 10.8 87.0 1023.1 0.0 SE 3.2 0.0
01:20 10.7 87.0 1023.0 0.0 SE 3.2 0.0
01:25 10.6 87.0 1023.0 0.0 SE 4.8 0.0
01:30 10.6 87.0 1023.0 0.0 SE 4.8 0.0
01:35 10.6 88.0 1022.9 0.0 SE 0.0 0.0
01:40 10.6 88.0 1023.0 0.0 SE 0.0 0.0
01:45 10.5 88.0 1022.9 0.0 SE 0.0 0.0
01:50 10.5 88.0 1022.9 0.0 SE 0.0 0.0
01:55 10.4 88.0 1022.9 0.0 SE 3.2 0.0
02:00 10.4 88.0 1022.9 0.0 SE 3.2 0.0
02:05 10.4 88.0 1022.8 0.0 SE 0.0 0.0
02:10 10.4 88.0 1022.7 0.0 SE 0.0 0.0
02:15 10.3 88.0 1022.7 0.0 SE 0.0 0.0
02:15 10.3 88.0 1022.7 0.0 SE 0.0 0.0
02:25 10.2 88.0 1022.7 0.0 SE 0.0 0.0
02:30 10.2 88.0 1022.5 0.0 SE 0.0 0.0
02:35 10.1 88.0 1022.6 0.0 SE 0.0 0.0
02:40 10.1 88.0 1022.6 0.0 SE 0.0 0.0
02:45 10.0 88.0 1022.6 0.0 SE 0.0 0.0
02:50 9.9 88.0 1022.6 0.0 SE 0.0 0.0
02:55 9.9 88.0 1022.6 0.0 SE 1.6 0.0
03:00 9.9 88.0 1022.5 0.0 SE 0.0 0.0
03:05 9.8 88.0 1022.6 0.0 SE 0.0 0.0
03:10 9.7 88.0 1022.7 0.0 SE 0.0 0.0
03:15 9.7 88.0 1022.6 0.0 SE 0.0 0.0
03:20 9.7 88.0 1022.6 0.0 SE 0.0 0.0
03:25 9.6 88.0 1022.6 0.0 SE 1.6 0.0
03:30 9.6 88.0 1022.7 0.0 SE 1.6 0.0
03:35 9.5 88.0 1022.7 0.0 SE 1.6 0.0
03:40 9.5 88.0 1022.7 0.0 SE 0.0 0.0
03:45 9.5 88.0 1022.6 3.2 SE 3.2 0.0
03:50 9.4 88.0 1022.6 0.0 SE 6.4 0.0
03:55 9.4 88.0 1022.6 0.0 SE 6.4 0.0
04:00 9.4 88.0 1022.6 0.0 SE 0.0 0.0
04:05 9.3 88.0 1022.6 0.0 SE 0.0 0.0
04:10 9.3 88.0 1022.6 0.0 SE 0.0 0.0
04:15 9.2 88.0 1022.5 0.0 SE 1.6 0.0
04:20 9.2 88.0 1022.6 0.0 SE 1.6 0.0
04:25 9.2 88.0 1022.7 0.0 SE 1.6 0.0
04:30 9.2 88.0 1022.7 0.0 SE 1.6 0.0
04:35 9.2 88.0 1022.8 0.0 SE 0.0 0.0
04:40 9.2 88.0 1022.6 0.0 SE 0.0 0.0
04:45 9.1 88.0 1022.6 0.0 SE 1.6 0.0
04:50 9.1 88.0 1022.6 0.0 SE 1.6 0.0
04:55 9.1 88.0 1022.6 0.0 SE 0.0 0.0
05:00 9.1 88.0 1022.6 0.0 SE 3.2 0.0
05:05 9.1 88.0 1022.6 0.0 SE 3.2 0.0
05:10 9.0 88.0 1022.6 0.0 SE 0.0 0.0
05:15 8.9 88.0 1022.7 0.0 SE 0.0 0.0
05:20 8.8 88.0 1022.6 0.0 SE 1.6 0.0
05:25 8.7 88.0 1022.7 0.0 SE 1.6 0.0
05:30 8.7 88.0 1022.6 1.6 SE 4.8 0.0
05:35 8.8 89.0 1022.7 0.0 SE 4.8 0.0
05:40 8.8 89.0 1022.7 0.0 SE 1.6 0.0
05:45 8.8 89.0 1022.6 0.0 SE 1.6 0.0
05:50 8.8 88.0 1022.7 0.0 SE 0.0 0.0
05:55 8.8 88.0 1022.7 0.0 SE 0.0 0.0
06:00 8.8 88.0 1022.7 0.0 SE 0.0 0.0
06:05 8.7 88.0 1022.7 0.0 SE 1.6 0.0
06:10 8.7 88.0 1022.8 0.0 SE 3.2 0.0
06:15 8.7 88.0 1022.9 0.0 SE 3.2 0.0
06:20 8.7 88.0 1022.9 0.0 SE 1.6 0.0
06:25 8.7 88.0 1023.0 0.0 SE 1.6 0.0
06:30 8.7 88.0 1023.1 0.0 SE 1.6 0.0
06:35 8.7 88.0 1023.0 0.0 SE 1.6 0.0
06:40 8.7 89.0 1023.0 0.0 SE 1.6 0.0
06:45 8.8 89.0 1023.2 0.0 SE 0.0 0.0
06:50 9.0 88.0 1023.2 0.0 SE 0.0 0.0
06:55 9.2 89.0 1023.2 0.0 SE 0.0 0.0
07:00 9.3 88.0 1023.3 0.0 SE 1.6 0.0
07:05 9.6 89.0 1023.3 0.0 SE 1.6 0.0
07:10 9.9 88.0 1023.4 0.0 SSE 1.6 0.0
07:15 10.3 88.0 1023.4 0.0 SSE 4.8 0.0
07:20 10.7 88.0 1023.4 0.0 SSE 4.8 0.0
07:25 11.1 88.0 1023.4 0.0 SSE 0.0 0.0
07:30 11.5 88.0 1023.4 0.0 SSE 1.6 0.0
07:35 11.9 88.0 1023.4 0.0 SSE 1.6 0.0
07:40 12.2 88.0 1023.4 0.0 S 1.6 0.0
07:45 12.7 88.0 1023.5 0.0 S 1.6 0.0
07:50 13.2 88.0 1023.4 0.0 S 1.6 0.0
07:55 13.6 87.0 1023.4 0.0 S 1.6 0.0
08:00 14.1 87.0 1023.5 0.0 S 1.6 0.0
08:05 14.5 86.0 1023.4 0.0 S 1.6 0.0
08:10 14.8 85.0 1023.4 0.0 S 1.6 0.0
08:15 15.1 84.0 1023.4 0.0 S 1.6 0.0
08:20 15.3 84.0 1023.5 0.0 S 1.6 0.0
08:25 15.7 83.0 1023.4 0.0 S 1.6 0.0
08:30 16.1 83.0 1023.5 0.0 S 1.6 0.0
08:30 16.4 82.0 1023.4 1.6 S 3.2 0.0
08:40 17.1 81.0 1023.3 1.6 S 3.2 0.0
08:45 17.6 79.0 1023.3 0.0 S 3.2 0.0
08:50 17.9 78.0 1023.3 1.6 S 3.2 0.0
08:55 18.3 77.0 1023.3 0.0 S 3.2 0.0
09:00 18.7 75.0 1023.3 0.0 SSE 3.2 0.0
09:05 19.1 74.0 1023.3 0.0 SSE 3.2 0.0
09:10 19.5 72.0 1023.2 0.0 SSE 8.0 0.0
09:15 19.8 71.0 1023.2 0.0 SSE 8.0 0.0
09:20 20.1 69.0 1023.2 0.0 SSE 1.6 0.0
09:20 20.3 64.0 1023.2 0.0 SSE 0.0 0.0
09:30 20.7 62.0 1023.2 0.0 SSW 1.6 0.0
09:35 21.0 62.0 1023.2 0.0 SSW 1.6 0.0
09:35 21.4 61.0 1023.2 0.0 SSW 0.0 0.0
09:45 21.8 61.0 1023.1 0.0 SSW 0.0 0.0
09:45 21.9 59.0 1023.1 0.0 SSW 0.0 0.0
09:55 22.3 56.0 1023.1 0.0 SSW 0.0 0.0
10:00 22.7 55.0 1023.1 0.0 SW 0.0 0.0
10:05 23.1 55.0 1023.1 0.0 SW 0.0 0.0
10:05 23.4 51.0 1023.1 0.0 WNW 3.2 0.0
10:10 23.7 47.0 1023.1 0.0 WNW 3.2 0.0
10:20 24.1 48.0 1023.0 0.0 WNW 1.6 0.0
10:25 24.4 46.0 1023.1 0.0 NW 6.4 0.0
10:30 24.6 46.0 1023.0 0.0 WNW 1.6 0.0
10:35 24.7 46.0 1023.0 1.6 WSW 8.0 0.0
10:40 24.5 45.0 1022.9 0.0 WSW 8.0 0.0
10:45 24.3 47.0 1022.8 6.4 WNW 8.0 0.0
10:50 24.4 47.0 1022.8 0.0 WNW 8.0 0.0
10:55 24.5 46.0 1022.8 0.0 WSW 3.2 0.0
11:00 24.4 47.0 1022.7 0.0 WNW 1.6 0.0
11:05 24.5 48.0 1022.6 0.0 W 0.0 0.0
11:10 24.8 46.0 1022.6 3.2 SW 3.2 0.0
11:10 25.1 45.0 1022.6 0.0 SW 4.8 0.0
11:15 25.4 44.0 1022.5 0.0 W 6.4 0.0
11:20 25.4 44.0 1022.5 0.0 WNW 6.4 0.0
11:30 25.8 44.0 1022.5 0.0 WNW 3.2 0.0
11:30 25.9 43.0 1022.5 0.0 WNW 3.2 0.0
11:40 25.9 43.0 1022.4 0.0 WNW 0.0 0.0
11:45 25.8 43.0 1022.4 0.0 WNW 0.0 0.0
11:50 25.7 44.0 1022.4 0.0 WNW 3.2 0.0
11:50 25.5 44.0 1022.3 0.0 WNW 4.8 0.0
11:55 25.4 44.0 1022.2 0.0 WNW 4.8 0.0
12:05 25.2 45.0 1022.3 0.0 WNW 0.0 0.0
12:05 25.1 46.0 1022.2 0.0 S 0.0 0.0
12:15 24.7 47.0 1022.1 0.0 SSE 4.8 0.0
12:15 24.5 49.0 1022.1 0.0 S 9.7 0.0
12:20 24.2 51.0 1022.2 6.4 SE 12.9 0.0
12:25 23.8 54.0 1022.0 16.1 SSE 24.1 0.0
12:35 23.5 55.0 1022.0 11.3 S 24.1 0.0
12:40 23.4 56.0 1022.0 16.1 S 22.5 0.0
12:40 23.7 56.0 1022.0 3.2 SE 24.1 0.0
12:50 23.9 55.0 1021.8 8.0 SSE 20.9 0.0
12:55 24.1 57.0 1021.9 11.3 SE 25.7 0.0
13:00 24.0 57.0 1021.7 8.0 SSW 22.5 0.0
13:05 24.1 58.0 1021.7 6.4 SE 20.9 0.0
13:10 24.1 57.0 1021.9 11.3 SE 22.5 0.0
13:15 24.1 57.0 1021.7 16.1 S 22.5 0.0
13:20 23.9 58.0 1021.7 19.3 SSE 20.9 0.0
13:25 23.9 58.0 1021.6 17.7 SE 20.9 0.0
13:30 23.9 58.0 1021.6 3.2 ESE 17.7 0.0
13:35 24.0 57.0 1021.6 19.3 S 22.5 0.0
13:35 23.9 59.0 1021.6 3.2 S 27.4 0.0
13:45 23.8 59.0 1021.6 8.0 SE 25.7 0.0
13:50 23.8 60.0 1021.7 22.5 SSE 24.1 0.0
13:55 23.7 60.0 1021.6 3.2 S 24.1 0.0
14:00 23.6 59.0 1021.6 14.5 E 27.4 0.0
14:05 23.6 60.0 1021.7 0.0 ESE 27.4 0.0
14:10 23.6 60.0 1021.7 12.9 S 22.5 0.0
14:15 23.6 60.0 1021.7 19.3 SE 29.0 0.0
14:20 23.5 61.0 1021.7 4.8 ESE 29.0 0.0
14:25 23.5 60.0 1021.6 19.3 SE 25.7 0.0
14:30 23.4 61.0 1021.6 11.3 ESE 25.7 0.0
14:35 23.3 61.0 1021.6 24.1 S 24.1 0.0
14:40 23.2 62.0 1021.7 19.3 SSE 29.0 0.0
14:45 23.1 62.0 1021.7 20.9 SSE 29.0 0.0
14:50 22.9 62.0 1021.6 11.3 S 25.7 0.0
14:55 22.8 63.0 1021.6 12.9 E 24.1 0.0
15:00 22.9 63.0 1021.6 12.9 S 24.1 0.0
15:05 22.8 64.0 1021.6 11.3 S 27.4 0.0
15:05 22.7 64.0 1021.7 3.2 ESE 27.4 0.0
15:15 22.6 64.0 1021.7 3.2 SSE 22.5 0.0
15:20 22.6 64.0 1021.9 16.1 S 25.7 0.0
15:25 22.6 64.0 1021.8 19.3 SE 30.6 0.0
15:30 22.6 64.0 1021.9 27.4 SSE 30.6 0.0
15:35 22.4 65.0 1021.9 12.9 ESE 25.7 0.0
15:40 22.4 65.0 1022.0 17.7 SSE 22.5 0.0
15:45 22.3 65.0 1021.9 14.5 SSE 25.7 0.0
15:50 22.2 66.0 1022.0 11.3 SE 22.5 0.0
15:55 22.1 66.0 1022.1 16.1 SE 25.7 0.0
16:00 21.8 67.0 1022.1 3.2 SSE 25.7 0.0
16:05 21.7 68.0 1022.2 6.4 SSE 24.1 0.0
16:10 21.6 68.0 1022.2 14.5 SE 25.7 0.0
16:15 21.4 69.0 1022.4 4.8 SE 25.7 0.0
16:20 21.3 70.0 1022.4 11.3 S 22.5 0.0
16:25 21.2 70.0 1022.5 4.8 ESE 22.5 0.0
16:30 21.1 70.0 1022.5 8.0 ESE 17.7 0.0
16:35 21.1 71.0 1022.6 4.8 SE 17.7 0.0
16:35 21.0 71.0 1022.6 4.8 ESE 17.7 0.0
16:45 20.9 71.0 1022.7 6.4 E 16.1 0.0
16:50 20.8 71.0 1022.7 3.2 ENE 16.1 0.0
16:55 20.7 71.0 1022.7 11.3 E 22.5 0.0
17:00 20.6 71.0 1022.8 3.2 ESE 22.5 0.0
17:05 20.4 72.0 1022.8 1.6 SE 20.9 0.0
17:05 20.3 72.0 1022.9 14.5 ENE 19.3 0.0
17:15 20.2 73.0 1023.0 12.9 E 20.9 0.0
17:20 20.1 73.0 1023.0 12.9 E 19.3 0.0
17:25 20.1 74.0 1023.1 0.0 SE 14.5 0.0
17:25 20.0 74.0 1023.2 0.0 SE 12.9 0.0
17:35 19.9 74.0 1023.3 6.4 ESE 14.5 0.0
17:35 19.9 75.0 1023.3 8.0 SE 17.7 0.0
17:40 19.8 75.0 1023.4 3.2 SE 17.7 0.0
17:50 19.7 75.0 1023.4 8.0 SE 9.7 0.0
17:55 19.6 76.0 1023.5 0.0 SSE 11.3 0.0
18:00 19.5 76.0 1023.6 3.2 SSE 4.8 0.0
18:05 19.4 76.0 1023.6 1.6 SSW 9.7 0.0
18:10 19.3 77.0 1023.7 1.6 SSE 9.7 0.0
18:15 19.2 77.0 1023.9 1.6 SSE 6.4 0.0
18:20 19.2 78.0 1023.8 11.3 E 11.3 0.0
18:25 19.1 78.0 1023.9 6.4 E 12.9 0.0
18:30 19.0 78.0 1024.0 6.4 SSW 12.9 0.0
18:35 18.9 78.0 1024.1 3.2 ESE 12.9 0.0
18:40 18.8 78.0 1024.2 4.8 SE 11.3 0.0
18:45 18.8 78.0 1024.3 4.8 SSE 11.3 0.0
18:50 18.7 78.0 1024.3 11.3 ESE 12.9 0.0
18:55 18.7 79.0 1024.3 3.2 ESE 12.9 0.0
19:00 18.7 78.0 1024.3 0.0 E 9.7 0.0
19:05 18.7 78.0 1024.4 4.8 E 14.5 0.0
19:10 18.7 78.0 1024.4 0.0 SSE 12.9 0.0
19:15 18.7 77.0 1024.5 1.6 SSE 12.9 0.0
19:20 18.7 77.0 1024.6 0.0 SSE 4.8 0.0
19:25 18.7 78.0 1024.7 0.0 SSE 1.6 0.0
19:30 18.7 78.0 1024.7 0.0 SSE 1.6 0.0
19:35 18.7 78.0 1024.7 0.0 SSE 1.6 0.0
19:40 18.7 78.0 1024.7 0.0 SSE 3.2 0.0
19:45 18.7 78.0 1024.7 0.0 SSE 1.6 0.0
19:50 18.7 79.0 1024.8 0.0 SSE 3.2 0.0
19:55 18.6 79.0 1024.8 0.0 SSE 3.2 0.0
20:00 18.6 79.0 1024.8 0.0 SSE 1.6 0.0
20:05 18.6 79.0 1024.9 0.0 SSE 0.0 0.0
20:10 18.5 79.0 1025.0 0.0 SSE 0.0 0.0
20:15 18.4 79.0 1025.1 0.0 SSE 0.0 0.0
20:20 18.4 79.0 1025.2 0.0 S 3.2 0.0
20:25 18.3 79.0 1025.2 0.0 S 3.2 0.0
20:30 18.3 79.0 1025.3 0.0 S 0.0 0.0
20:35 18.3 79.0 1025.3 0.0 S 0.0 0.0
20:40 18.3 79.0 1025.3 0.0 S 0.0 0.0
20:45 18.3 79.0 1025.4 0.0 S 0.0 0.0
20:50 18.3 79.0 1025.4 0.0 S 0.0 0.0
20:55 18.3 79.0 1025.4 0.0 S 0.0 0.0
21:00 18.3 79.0 1025.4 0.0 S 0.0 0.0
21:05 18.2 79.0 1025.4 0.0 S 0.0 0.0
21:10 18.2 79.0 1025.4 0.0 S 0.0 0.0
Màxima 26.1 89.0 1025.4 27.4 SSE 30.6 0.0
Mínima 8.6 43.0 1021.6
Total 0.0